CW9098 Weather Reports


Display with metric or nautical units.
time (UTC)temp
F
wind
direction
speed
MPH
gust
MPH
rain 1hr
in
rain 24hr
in
rain mn
in
humidity
%
barometer
mb
20260505090121 51 153 2.0 5.0 0.00 0.02 0.02 87 1009.4
20260505085636 51 201 0.0 0.0 0.00 0.02 0.02 87 1009.5
20260505085123 51 201 0.0 0.0 0.00 0.02 0.02 87 1009.4
20260505084618 51 201 0.0 4.0 0.00 0.02 0.02 87 1009.2
20260505084128 52 201 1.0 5.0 0.00 0.02 0.02 87 1009.1
20260505083642 52 201 4.0 5.0 0.00 0.02 0.02 86 1008.9
20260505083136 52 188 2.0 2.0 0.00 0.02 0.02 86 1008.6
20260505082632 52 188 0.0 3.0 0.00 0.02 0.02 86 1008.6
20260505082141 53 187 1.0 3.0 0.00 0.02 0.02 86 1008.6
20260505081634 53 188 0.0 0.0 0.00 0.02 0.02 86 1008.6
20260505081141 53 188 0.0 4.0 0.00 0.02 0.02 86 1008.6
20260505080633 53 222 2.0 3.0 0.00 0.02 0.02 86 1008.5
20260505080120 53 224 0.0 6.0 0.00 0.02 0.02 87 1008.5
20260505075724 52 224 3.0 7.0 0.00 0.02 0.02 87 1008.4
20260505075118 51 210 5.0 7.0 0.00 0.02 0.02 87 1008.4
20260505074633 51 181 4.0 7.0 0.00 0.02 0.02 87 1008.3
20260505074121 50 216 4.0 6.0 0.00 0.02 0.02 87 1008.3
20260505073632 49 131 3.0 9.0 0.00 0.02 0.02 87 1008.3
20260505073135 49 314 0.0 9.0 0.00 0.02 0.02 87 1008.6
20260505072651 48 214 2.0 5.0 0.00 0.02 0.02 87 1008.8
20260505072124 48 221 3.0 4.0 0.00 0.02 0.02 87 1008.9
20260505071618 48 222 1.0 4.0 0.00 0.02 0.02 87 1008.8
20260505071133 48 260 1.0 4.0 0.00 0.02 0.02 87 1008.7
20260505070619 48 216 2.0 4.0 0.00 0.02 0.02 87 1008.5
20260505070133 48 216 3.0 4.0 0.00 0.02 0.02 87 1008.5
20260505065621 48 214 2.0 3.0 0.00 0.02 0.02 87 1008.4
20260505065135 48 214 2.0 3.0 0.00 0.02 0.02 87 1008.5
20260505064623 48 213 0.0 0.0 0.00 0.02 0.02 87 1008.4
20260505064120 48 213 0.0 0.0 0.00 0.02 0.02 87 1008.4
20260505063634 48 213 0.0 0.0 0.00 0.02 0.02 87 1008.3
20260505063122 49 213 0.0 0.0 0.00 0.02 0.02 87 1008.3
20260505062637 49 213 0.0 0.0 0.00 0.02 0.02 87 1008.3
20260505062124 49 213 0.0 0.0 0.00 0.02 0.02 86 1008.3
20260505061658 49 213 0.0 0.0 0.00 0.02 0.02 86 1008.5
20260505061145 49 213 0.0 0.0 0.00 0.02 0.02 86 1008.5
20260505060618 49 213 0.0 0.0 0.00 0.02 0.02 86 1008.6
20260505060133 49 213 0.0 0.0 0.00 0.02 0.02 86 1008.6
20260505055620 49 213 0.0 0.0 0.00 0.02 0.02 86 1008.6
20260505055135 49 213 0.0 0.0 0.00 0.02 0.02 86 1008.6
20260505054621 50 214 0.0 0.0 0.00 0.02 0.02 86 1008.8
20260505054117 50 215 0.0 0.0 0.00 0.02 0.02 86 1008.7
20260505053627 50 215 0.0 0.0 0.00 0.02 0.02 86 1008.8
20260505053122 50 214 0.0 0.0 0.00 0.02 0.02 86 1008.8
20260505052617 50 215 0.0 0.0 0.00 0.02 0.02 86 1008.8
20260505052130 50 216 0.0 0.0 0.00 0.02 0.02 86 1008.9
20260505051623 51 215 0.0 0.0 0.00 0.02 0.02 85 1008.9
20260505051138 51 215 0.0 2.0 0.00 0.02 0.02 85 1008.8
20260505050625 51 215 0.0 2.0 0.00 0.02 0.02 85 1008.8
20260505050120 51 217 0.0 5.0 0.00 0.02 0.02 85 1008.8
20260505041632 52 215 0.0 0.0 0.00 0.02 0.02 84 1008.6
20260505041121 52 216 0.0 3.0 0.00 0.02 0.02 84 1008.6
20260505040615 52 216 1.0 4.0 0.00 0.02 0.02 84 1008.6
20260505040151 52 216 0.0 0.0 0.00 0.02 0.02 83 1008.7
20260505035620 52 215 0.0 0.0 0.00 0.02 0.02 83 1008.7
20260505035135 53 215 0.0 0.0 0.00 0.02 0.02 83 1008.7
20260505034622 53 215 0.0 2.0 0.00 0.02 0.02 83 1008.7
20260505034138 53 215 0.0 3.0 0.00 0.02 0.02 82 1008.7
20260505033624 53 216 1.0 3.0 0.00 0.02 0.02 82 1008.7
20260505033118 54 216 0.0 0.0 0.00 0.02 0.02 81 1008.6
20260505032633 54 217 0.0 0.0 0.00 0.02 0.02 81 1008.8
20260505032120 55 217 0.0 0.0 0.00 0.02 0.02 80 1008.7
20260505031635 55 217 0.0 0.0 0.00 0.02 0.02 80 1008.6
20260505031125 55 217 0.0 0.0 0.00 0.02 0.02 80 1008.6
20260505030618 55 217 0.0 0.0 0.00 0.02 0.02 80 1008.7
20260505030128 56 217 0.0 0.0 0.00 0.02 0.02 79 1008.7
20260505025622 56 217 0.0 0.0 0.00 0.02 0.02 78 1008.7
20260505025115 56 217 0.0 0.0 0.00 0.02 0.02 78 1008.8
20260505024650 57 217 0.0 0.0 0.00 0.02 0.02 77 1008.8
20260505024126 57 216 0.0 0.0 0.00 0.02 0.02 76 1008.7
20260505023620 58 218 0.0 0.0 0.00 0.02 0.02 75 1008.7
20260505023135 58 218 0.0 0.0 0.00 0.02 0.02 74 1008.8
20260505022622 58 218 0.0 0.0 0.00 0.02 0.02 73 1008.6
20260505022135 59 218 0.0 2.0 0.00 0.02 0.02 72 1008.6
20260505021643 59 217 0.0 2.0 0.00 0.02 0.02 71 1008.5
20260505021118 60 218 0.0 3.0 0.00 0.02 0.02 71 1008.6
20260505020633 60 218 1.0 3.0 0.00 0.02 0.02 70 1008.6
20260505020141 60 218 1.0 3.0 0.00 0.02 0.02 69 1008.6
20260505015635 60 217 0.0 0.0 0.00 0.02 0.02 68 1008.5
20260505015120 61 216 0.0 0.0 0.00 0.02 0.02 67 1008.5
20260505014657 61 216 0.0 0.0 0.00 0.02 0.02 66 1008.3
20260505014123 62 216 0.0 0.0 0.00 0.02 0.02 64 1008.3
20260505013617 63 216 0.0 0.0 0.00 0.02 0.02 63 1008.4
20260505013132 63 216 0.0 1.0 0.00 0.02 0.02 61 1008.4
20260505012619 64 216 0.0 3.0 0.00 0.02 0.02 60 1008.4
20260505012150 65 218 1.0 5.0 0.00 0.02 0.02 59 1008.3
20260505011623 65 221 2.0 5.0 0.00 0.02 0.02 58 1008.2
20260505011119 65 212 0.0 3.0 0.00 0.02 0.02 57 1008.1
20260505010654 66 210 0.0 5.0 0.00 0.02 0.02 57 1008.0
20260505010127 66 210 1.0 8.0 0.00 0.02 0.02 56 1007.9
20260505005624 66 201 3.0 8.0 0.00 0.02 0.02 56 1007.8
20260505005137 66 212 1.0 6.0 0.00 0.02 0.02 56 1007.7
20260505004624 66 186 2.0 9.0 0.00 0.02 0.02 56 1007.6
20260505004118 66 202 3.0 9.0 0.00 0.02 0.02 55 1007.7
20260505003631 66 193 2.0 6.0 0.01 0.02 0.02 55 1007.5
20260505003119 66 205 2.0 7.0 0.01 0.02 0.02 55 1007.6
20260505002616 66 197 2.0 10.0 0.01 0.02 0.02 54 1007.7
20260505002131 67 205 5.0 10.0 0.01 0.02 0.02 53 1007.7
20260505001639 67 191 2.0 8.0 0.01 0.02 0.02 53 1007.8
20260505001131 67 212 3.0 10.0 0.01 0.02 0.02 52 1007.9
20260505000618 68 196 1.0 10.0 0.01 0.02 0.02 51 1007.7
20260505000155 68 193 1.0 5.0 0.01 0.02 0.02 50 1007.6
20260504235622 69 187 1.0 6.0 0.01 0.02 0.02 50 1007.6
20260504235135 69 193 2.0 7.0 0.01 0.02 0.02 49 1007.6
20260504234623 69 193 1.0 9.0 0.01 0.02 0.02 48 1007.6
20260504234119 69 202 2.0 15.0 0.01 0.02 0.02 47 1007.5
20260504233633 70 223 5.0 15.0 0.00 0.01 0.01 47 1007.4
20260504233120 70 180 5.0 12.0 0.00 0.01 0.01 46 1007.4
20260504232634 71 188 5.0 12.0 0.00 0.01 0.01 45 1007.4
20260504232135 71 216 5.0 19.0 0.00 0.01 0.01 44 1007.3
20260504231650 72 196 7.0 19.0 0.00 0.01 0.01 43 1007.2
20260504231126 72 231 10.0 17.0 0.00 0.01 0.01 42 1007.1
20260504230620 72 197 3.0 18.0 0.00 0.02 0.01 42 1007.1
20260504230135 72 186 5.0 21.0 0.00 0.02 0.01 42 1007.1
20260504225643 72 162 9.0 21.0 0.00 0.02 0.01 42 1007.1
20260504225134 72 201 5.0 15.0 0.00 0.02 0.01 43 1007.1
20260504224621 72 228 3.0 18.0 0.00 0.02 0.01 45 1007.2
20260504224136 72 223 4.0 16.0 0.00 0.02 0.01 44 1007.2
20260504223622 72 221 7.0 18.0 0.00 0.02 0.01 44 1007.1
20260504223137 73 186 9.0 18.0 0.00 0.02 0.01 43 1007.1
20260504222625 73 245 6.0 16.0 0.00 0.02 0.01 44 1007.1
20260504222138 74 222 7.0 17.0 0.00 0.02 0.01 44 1007.0
20260504221644 74 195 8.0 17.0 0.00 0.02 0.01 43 1007.0
20260504221118 75 232 10.0 16.0 0.00 0.02 0.01 42 1007.0
20260504220633 75 221 10.0 15.0 0.00 0.02 0.01 42 1007.0
20260504220120 74 204 5.0 17.0 0.00 0.02 0.01 43 1007.0
20260504215636 74 219 8.0 16.0 0.00 0.02 0.01 43 1007.1
20260504215122 74 234 5.0 19.0 0.00 0.02 0.01 43 1007.1
20260504214636 74 209 8.0 19.0 0.00 0.02 0.01 43 1007.0
20260504214125 74 183 11.0 18.0 0.00 0.02 0.01 45 1007.0
20260504213618 73 170 10.0 15.0 0.00 0.02 0.01 45 1006.9
20260504213127 73 168 7.0 17.0 0.00 0.02 0.01 45 1007.0
20260504212643 73 182 10.0 19.0 0.00 0.02 0.01 46 1006.9
20260504212115 74 174 9.0 19.0 0.00 0.02 0.01 43 1006.9
20260504211629 75 224 12.0 22.0 0.00 0.02 0.01 41 1007.0
20260504211124 75 172 17.0 22.0 0.00 0.02 0.01 44 1006.9
20260504210638 74 174 8.0 24.0 0.00 0.02 0.01 44 1007.0
20260504210143 73 175 14.0 24.0 0.00 0.02 0.01 45 1007.0
20260504205636 73 198 10.0 17.0 0.00 0.02 0.01 45 1007.1
20260504205122 73 205 10.0 19.0 0.00 0.02 0.01 44 1007.1
20260504204636 73 210 11.0 19.0 0.00 0.02 0.01 45 1007.0
20260504204122 72 167 6.0 14.0 0.00 0.02 0.01 45 1007.0
20260504203636 73 189 8.0 13.0 0.00 0.02 0.01 44 1007.1
20260504203121 73 208 3.0 16.0 0.00 0.02 0.01 45 1007.1
20260504202635 73 193 7.0 19.0 0.00 0.02 0.01 44 1007.2
20260504202121 73 192 10.0 22.0 0.00 0.02 0.01 44 1007.2
20260504201616 74 193 12.0 22.0 0.00 0.02 0.01 42 1007.5
20260504201130 74 174 17.0 24.0 0.00 0.02 0.01 44 1007.5
20260504200620 74 168 10.0 23.0 0.00 0.03 0.01 42 1007.4
20260504200154 74 169 12.0 25.0 0.00 0.03 0.01 44 1007.6
20260504195621 73 172 7.0 18.0 0.00 0.03 0.01 45 1007.4
20260504195135 73 189 6.0 18.0 0.00 0.03 0.01 43 1007.5
20260504194623 73 191 11.0 18.0 0.00 0.03 0.01 42 1007.6
20260504194119 73 201 9.0 17.0 0.00 0.03 0.01 43 1007.7
20260504193629 74 194 14.0 25.0 0.00 0.03 0.01 41 1007.7
20260504193121 74 170 14.0 25.0 0.00 0.03 0.01 44 1008.2
20260504192617 73 189 10.0 23.0 0.00 0.03 0.01 46 1008.0
20260504192131 72 161 9.0 24.0 0.00 0.03 0.01 44 1007.9
20260504191637 73 183 12.0 24.0 0.00 0.03 0.01 42 1008.0
20260504191126 73 185 8.0 28.0 0.00 0.03 0.01 42 1008.1
20260504190619 74 166 13.0 28.0 0.00 0.04 0.01 42 1008.2
20260504190114 74 153 11.0 21.0 0.00 0.04 0.01 43 1008.3
20260504185631 74 178 13.0 21.0 0.00 0.04 0.01 42 1008.3
20260504185133 73 230 9.0 18.0 0.00 0.04 0.01 42 1008.3
20260504184641 72 224 10.0 24.0 0.00 0.04 0.01 44 1008.4
20260504184135 72 161 16.0 24.0 0.00 0.04 0.01 42 1008.6
20260504183621 72 157 6.0 20.0 0.00 0.04 0.01 42 1008.6
20260504183132 73 170 13.0 21.0 0.00 0.04 0.01 41 1008.8
20260504182622 73 164 9.0 24.0 0.00 0.04 0.01 42 1008.9
20260504182118 73 255 13.0 24.0 0.00 0.04 0.01 39 1008.6
20260504181633 74 228 8.0 17.0 0.00 0.04 0.01 42 1008.8
20260504181139 73 175 7.0 21.0 0.00 0.04 0.01 42 1008.9
20260504180619 72 177 11.0 20.0 0.00 0.04 0.01 42 1008.9
20260504180153 72 222 8.0 19.0 0.00 0.04 0.01 40 1009.0
20260504175640 72 223 12.0 19.0 0.00 0.04 0.01 40 1009.1
20260504175150 72 208 13.0 21.0 0.00 0.04 0.01 40 1009.2
20260504174624 72 238 8.0 19.0 0.00 0.04 0.01 40 1009.2
20260504174120 72 205 9.0 22.0 0.00 0.04 0.01 43 1009.4
20260504173633 71 240 10.0 22.0 0.00 0.04 0.01 41 1009.4
20260504173124 71 251 12.0 23.0 0.00 0.04 0.01 42 1009.5
20260504172620 71 228 6.0 14.0 0.00 0.04 0.01 43 1009.4
20260504172134 71 240 6.0 18.0 0.00 0.04 0.01 41 1009.5
20260504171621 71 195 11.0 18.0 0.00 0.04 0.01 43 1009.7
20260504171157 70 173 7.0 20.0 0.00 0.04 0.01 43 1009.6
20260504170641 70 233 12.0 30.0 0.00 0.05 0.01 42 1009.8
20260504170136 70 198 14.0 30.0 0.00 0.05 0.01 43 1009.9
20260504160114 69 189 12.0 23.0 0.00 0.07 0.01 48 1010.4
20260504151120 66 169 12.0 22.0 0.00 0.07 0.01 47 1011.0
20260504150633 66 231 10.0 19.0 0.00 0.09 0.01 47 1011.1
20260504150140 65 200 10.0 19.0 0.00 0.09 0.01 46 1011.1
20260504141157 60 191 9.0 17.0 0.00 0.09 0.01 54 1011.8
20260504140622 60 176 8.0 17.0 0.00 0.12 0.01 56 1011.8
20260504140136 59 180 9.0 12.0 0.00 0.12 0.01 58 1011.8
20260504130618 51 187 3.0 8.0 0.00 0.16 0.01 66 1012.2
20260504130148 50 170 3.0 5.0 0.00 0.16 0.01 67 1012.2
20260504120115 44 185 3.0 5.0 0.00 0.21 0.01 81 1012.5
20260504110625 37 215 3.0 5.0 0.00 0.21 0.01 87 1012.7
20260504110119 36 214 4.0 5.0 0.00 0.21 0.01 87 1012.7
20260504100132 36 201 3.0 4.0 0.01 0.21 0.01 87 1012.8